Вернуться в каталог

QPS-SAR-9 SUSANOO-I

АктивенНаукаVLEO
NORAD 63205·PAYLOAD·🇯🇵 Japan

Запущен Mar 15, 2025 с Rocket Lab Launch Complex 1

Loading…

Ближайшие Пролёты (ближайшие 24 часа)

TLE

СвежийSource: Space-Track

Эпоха: Sep 14, 2026, 14:24 UTC

1 63205U 25050A   26257.60051308  .00003725  00000-0  27955-3 0  9991
2 63205  42.0205 327.8679 0004949   2.6845 357.4008 15.03857587 82426

Отслеживайте QPS-SAR-9 SUSANOO-I в реальном времени с AllMySat

Download on the App Store